Location: Bouret-sur-Canche
(50.2671°N, 2.3240°E)
Time: 05:34:22
(UTC+00:00)

Daily predictions for brighter satellites

Satellite Brightness Start Highest point End
(mag) Time Altitude Azimuth Time Altitude Azimuth Time Altitude Azimuth
Cosmos 1461 4.3 00:01:18 10° NW 00:03:29 32° NNW 00:03:29 32° NNW
Cosmos 158 Rocket 4.3 00:05:02 54° WNW 00:05:12 54° WNW 00:10:10 10° NNE
Cosmos 1844 Rocket 4.2 00:01:55 10° NW 00:05:29 22° W 00:05:29 22° W
Cosmos 1943 Rocket 3.7 00:01:25 10° NNW 00:06:31 33° NE 00:10:24 16° ESE
Lacrosse 4 Rocket 4.1 00:04:17 10° WNW 00:06:32 14° NNW 00:08:46 10° N
SL-16 R/B 3.6 00:06:04 23° W 00:08:42 33° NW 00:13:50 10° NNE
ATLAS 5 CENTAUR R/B 3.6 00:06:22 10° NNW 00:10:18 29° NNE 00:15:03 10° E
RESURS DK-1 4.2 00:13:30 23° ENE 00:13:30 23° ENE 00:15:32 10° NE
Cosmos 972 Rocket 4.3 00:12:33 54° E 00:12:33 54° E 00:17:04 10° NNE
Cosmos 1867 3.7 00:10:32 10° NW 00:15:26 63° W 00:15:26 63° W
NOSS 2-2 (D) 4.0 00:13:57 10° NW 00:18:03 67° NE 00:18:12 66° ENE
USA 32 4.0 00:20:06 70° W 00:20:06 70° W 00:25:20 10° N
Cosmos 2344 4.0 00:20:08 10° NW 00:28:16 80° NE 00:39:26 10° SE
Aureole 3 Rocket 4.5 00:27:15 10° NNW 00:29:21 26° NW 00:29:21 26° NW
Tsikada Rocket 3.9 00:30:35 63° SW 00:31:28 73° WNW 00:37:38 10° N
USA 215 4.2 00:28:28 10° ENE 00:34:07 31° SE 00:34:07 31° SE
Cosmos 1536 4.3 00:32:06 10° N 00:35:23 29° ENE 00:35:23 29° ENE
Lacrosse 5 2.8 00:35:37 23° WNW 00:38:27 46° NNW 00:43:23 10° ENE
NOSS 2-3 (C) 4.4 00:37:19 10° NW 00:42:52 83° SW 00:45:10 45° SSE
ATLAS 3B R/B 4.3 00:36:16 10° NW 00:43:28 40° NNE 00:50:46 10° E
NOSS 0 Rocket 4.1 00:45:55 50° SE 00:46:43 54° ESE 00:52:42 10° NE
NOSS 2-3 (D) 4.4 00:42:24 10° NW 00:47:55 81° SW 00:50:20 44° SSE
NOSS 3-4 (A) 4.0 00:51:31 31° W 00:53:54 48° NW 00:59:59 10° NE
NOSS 3-4 (C) 4.0 00:51:35 31° W 00:53:56 49° NW 01:00:02 10° NE
Cosmos 1766 Rocket 4.3 00:52:36 10° NNW 00:55:54 42° NW 00:55:54 42° NW
Gbstr 26 Del rocket 3.2 00:57:32 66° ENE 00:57:32 66° ENE 01:01:05 10° ENE
H-2A R/B 3.7 00:54:08 10° N 00:57:33 24° WNW 00:57:39 24° WNW
Cosmos 2369 Rocket 4.5 00:54:47 10° NNW 00:59:12 23° NE 01:03:35 10° E
Cosmos 2237 Rocket 2.6 00:59:39 45° SE 01:00:24 47° ESE 01:05:51 10° NE
IDEFIX/ARIANE 42P 3.7 00:57:54 10° NNE 01:02:38 34° E 01:03:55 30° SE
Cosmos 1980 4.0 01:02:36 49° SE 01:03:22 53° ESE 01:08:50 10° NE
NOSS 2-2 (C) 4.2 01:01:32 10° NW 01:04:40 48° WNW 01:04:40 48° WNW
CZ-2D R/B 3.5 01:03:44 10° NNE 01:08:30 31° E 01:10:23 25° SE
Cosmos 1634 Rocket 4.5 01:02:46 10° NNW 01:08:42 43° W 01:09:31 41° WSW
USA 267 3.4 01:04:04 10° ESE 01:10:33 75° NNE 01:17:05 10° WNW
USA 308 4.4 01:14:03 23° E 01:14:03 23° E 01:15:52 10° ENE
Cosmos 2360 Rocket 3.9 01:10:54 16° W 01:13:56 25° NW 01:18:33 10° NNE
COSMOS 2428 2.9 01:13:37 52° WSW 01:14:48 65° WNW 01:20:29 10° NNE
Meteor 2-9 Rocket 4.5 01:10:01 10° N 01:15:26 61° ENE 01:17:36 36° SE
Cosmos 1743 Rocket 4.1 01:12:22 10° N 01:16:37 52° ENE 01:17:16 47° ESE
Meteor 2-6 Rocket 4.3 01:15:50 57° SW 01:17:01 73° WNW 01:22:54 10° N
Cosmos 2180 Rocket 4.5 01:12:09 10° NNW 01:18:29 70° W 01:19:59 52° SSW
Cosmos 1726 3.5 01:16:09 10° N 01:17:55 30° NNW 01:17:55 30° NNW
Resurs 1-4 Rocket 3.1 01:15:37 10° NNE 01:20:34 39° E 01:22:17 30° SE
Helios 1A Rocket 4.4 01:22:22 25° WNW 01:22:22 25° WNW 01:24:36 10° NNW
Cosmos 2322 4.3 01:21:01 39° W 01:22:36 49° NW 01:28:11 10° NNE
Cosmos 2219 Rocket 3.4 01:23:12 25° W 01:25:21 32° NW 01:30:23 10° NNE
BREEZE-M DEB (TANK) 4.4 01:27:27 12° E 01:27:27 12° E 01:27:39 10° E
IRIDIUM 104 4.2 01:20:59 10° N 01:26:12 72° W 01:26:53 62° SW
Cosmos 2221 3.8 01:26:50 29° WNW 01:26:50 29° WNW 01:30:25 10° N
Cosmos 2322 Rocket 4.4 01:27:00 10° WNW 01:30:43 18° NNW 01:34:28 10° N
Cosmos 2278 Rocket 2.5 01:27:01 10° NW 01:32:25 46° WSW 01:32:30 46° WSW
IRIDIUM 114 4.4 01:30:10 10° N 01:35:19 60° W 01:36:02 54° SW
USA 290 4.0 01:36:08 10° N 01:39:05 31° ENE 01:40:16 24° E
Meteor 2-10 4.2 01:36:09 10° NNW 01:41:53 88° E 01:44:15 38° SSE
Cosmos 1420 Rocket 3.9 01:36:39 10° NNW 01:41:57 89° ENE 01:44:11 36° SSE
COBE Rocket 4.3 01:37:24 10° NNE 01:41:57 53° E 01:43:15 40° SSE
Cosmos 2333 Rocket 4.2 01:38:15 11° W 01:42:02 20° NW 01:46:11 10° NNE
Cosmos 1680 Rocket 3.7 01:42:34 44° SSE 01:44:04 63° ESE 01:49:20 10° NNE
ADEOS II 3.1 01:39:56 10° NNE 01:44:52 40° E 01:47:24 24° SSE
RESURS DK-1 3.4 01:49:06 33° WNW 01:49:37 34° NW 01:53:22 10° NNE
Cosmos 1943 Rocket 2.2 01:45:01 10° NW 01:50:34 56° WSW 01:51:51 46° SSW
Meteor 1-28 Rocket 4.3 01:49:06 27° ESE 01:50:35 41° ENE 01:54:03 10° N
ATLAS 2AS CENTAUR R/B 3.1 01:49:36 33° S 01:52:49 57° ESE 01:59:46 10° NE
Nadezhda 4 Rocket 3.9 01:50:48 42° SSW 01:52:52 69° WNW 01:59:00 10° N
ATLAS 5 CENTAUR R/B 1.9 01:49:50 10° NW 01:54:40 80° SW 02:00:42 10° SE
Cosmos 1408 Rocket 4.2 01:51:14 10° NNW 01:54:59 38° W 01:54:59 38° W
Cosmos 2056 Rocket 3.5 01:50:12 10° NNW 01:55:38 84° WSW 01:58:37 28° SSE
Cosmos 1428 Rocket 4.4 01:53:46 37° S 01:56:28 90° E 02:02:44 10° N
SL-16 R/B 3.0 01:54:58 27° SSE 01:57:30 42° ESE 02:02:49 10° NE
MOZ.5/SAFIR/RUBIN 5/SL-8 4.5 01:59:23 36° W 01:59:23 36° W 02:03:46 10° NNW
Sich 1 3.1 01:57:08 10° NNW 02:01:17 53° W 02:01:28 52° WSW
Cosmos 1340 Rocket 3.3 02:01:32 40° SE 02:02:30 52° E 02:06:21 10° NNE
GP-B 3.1 01:58:07 10° N 02:02:33 79° E 02:03:57 43° S
CZ-2C R/B 2.5 02:00:14 31° S 02:02:53 83° WSW 02:08:12 10° NNW
Meteor 1-27 Rocket 3.7 02:01:02 41° SSW 02:03:08 80° WNW 02:08:46 10° N
GEOS 3 Rocket 3.5 02:00:01 10° SE 02:05:22 83° SW 02:10:42 10° NW
Cosmos 1624 Rocket 3.9 02:00:22 10° NNW 02:05:34 72° WSW 02:08:03 31° S
Okean 1 3.5 02:05:34 50° W 02:05:38 50° WNW 02:09:22 10° N
SL-16 R/B 2.7 02:00:35 10° SSE 02:06:46 75° ENE 02:13:01 10° NNW
ALOS 3.6 02:03:02 10° NNE 02:07:14 33° E 02:10:17 16° SSE
NPP 3.6 02:04:39 10° NNE 02:10:03 74° WNW 02:12:10 38° SSW
NOSS 3-1 (A) 4.2 02:03:11 10° NW 02:10:14 75° NE 02:18:55 10° SE
Cosmos 1340 2.5 02:06:50 10° N 02:10:16 70° ENE 02:10:59 50° SE
Cosmos 1536 4.2 02:08:15 10° NNW 02:10:40 23° WNW 02:10:40 23° WNW
Cosmos 1805 3.0 02:08:50 10° N 02:12:33 89° ENE 02:13:21 54° S
Cosmos 1733 3.5 02:10:27 10° NNW 02:13:33 44° WNW 02:13:33 44° WNW
Cosmos 1500 Rocket 4.4 02:12:10 10° NNW 02:16:08 32° W 02:16:13 32° W
H-2A R/B 3.9 02:13:03 10° N 02:16:57 45° WNW 02:17:40 40° W
USA 215 3.2 02:11:10 10° ENE 02:17:46 84° SSE 02:21:28 29° SW
Cosmos 1805 Rocket 4.1 02:13:54 10° NNW 02:17:53 36° W 02:18:06 36° W
Intercosmos 25 Rocket 4.1 02:15:35 10° N 02:19:27 67° E 02:25:26 10° SSE
Lacrosse 5 3.2 02:17:25 10° WNW 02:22:15 40° N 02:27:05 10° ENE
COSMOS 2441 4.3 02:17:21 10° NNE 02:22:16 89° ESE 02:24:29 33° SSW
Cosmos 1666 Rocket 3.5 02:18:16 10° N 02:22:45 89° W 02:25:08 27° S
Cosmos 923 Rocket 4.4 02:20:52 34° WSW 02:22:54 53° WNW 02:28:06 10° NNE
Cosmos 1553 Rocket 4.1 02:17:22 10° N 02:23:39 78° E 02:29:47 10° SSE
Meteor 1-11 Rocket 4.5 02:19:05 10° NNW 02:23:54 31° W 02:25:03 29° WSW
NOSS 3-1 (C) 4.0 02:21:00 10° NW 02:28:09 63° SW 02:36:49 10° SSE
ATLAS 3B R/B 3.0 02:27:18 10° NW 02:35:11 90° NE 02:42:59 10° SE
MSX 4.0 02:29:53 10° N 02:35:33 58° WNW 02:38:35 27° SW
Cosmos 1371 Rocket 4.5 02:33:00 10° NW 02:37:53 39° WSW 02:39:56 28° SSW
Cosmos 1656 Rocket 3.5 02:34:08 10° NNW 02:39:33 79° WSW 02:44:58 10° SSE
Cosmos 2026 Rocket 4.2 02:37:38 26° SW 02:41:15 58° WNW 02:47:34 10° N
IDEFIX/ARIANE 42P 3.2 02:37:22 10° N 02:42:14 41° WNW 02:44:41 25° WSW
Cosmos 1328 Rocket 3.5 02:41:11 26° S 02:43:39 88° W 02:48:08 10° N
Gbstr 26 Del rocket 2.9 02:39:47 13° WNW 02:43:43 78° N 02:47:32 10° E
Cosmos 1626 2.0 02:42:31 30° S 02:43:57 69° E 02:47:14 10° NNE
Cosmos 2369 Rocket 2.1 02:38:21 10° NNW 02:43:59 89° WSW 02:49:35 10° SSE
USA 308 2.8 02:42:30 30° W 02:44:12 67° NNW 02:48:07 10° ENE
Cosmos 2237 Rocket 3.1 02:41:27 21° WSW 02:44:37 37° NW 02:49:55 10° NNE
Cosmos 1092 Rocket 4.2 02:42:40 25° SW 02:46:07 53° WNW 02:52:11 10° N
CZ-2C R/B 3.2 02:43:08 10° N 02:48:24 69° WNW 02:51:58 22° SSW
CZ-2D R/B 2.6 02:43:31 10° N 02:48:41 48° WNW 02:51:41 24° SW
Cosmos 1151 Rocket 3.8 02:47:22 28° WSW 02:48:51 36° WNW 02:52:55 10° N
Cosmos 1975 3.1 02:45:23 10° NNW 02:49:05 43° W 02:50:23 31° SW
Cosmos 921 Rocket 3.2 02:48:29 29° SW 02:50:27 56° WNW 02:54:49 10° NNE
Cosmos 1633 Rocket 3.1 02:48:04 10° NNW 02:52:19 55° W 02:55:02 21° SSW
SAR-Lupe-1 4.0 02:48:46 10° N 02:52:22 73° WNW 02:54:03 29° SSW
Cosmos 2297 3.7 02:46:53 10° NW 02:52:34 62° WSW 02:58:13 10° SSE
AQUA 3.8 02:49:06 10° N 02:53:48 66° WNW 02:56:41 23° SSW
USA 267 3.4 02:47:38 10° SSE 02:53:51 47° SW 03:00:07 10° WNW
SAR-Lupe-4 3.6 02:53:01 10° N 02:56:34 62° WNW 02:58:13 29° SW
Cosmos 44 4.4 02:53:32 10° NNW 02:58:27 47° NE 03:03:03 10° ESE
Resurs 1-4 Rocket 2.9 02:55:31 10° N 03:00:20 37° WNW 03:03:20 20° WSW
Cosmos 1766 3.0 03:00:10 10° NNW 03:03:51 72° W 03:07:19 11° S
Cosmos 494 Rocket 3.9 03:02:00 20° SSW 03:05:34 77° WNW 03:10:44 10° NNE
Iridium 51 4.0 03:05:13 14° S 03:08:03 77° E 03:11:31 10° N
Meteor 2-4 Rocket 3.9 03:04:17 19° SW 03:08:07 55° WNW 03:13:42 10° N
Cosmos 1943 4.0 03:03:58 10° S 03:09:25 49° ESE 03:14:54 10° NE
FENGYUN 3A 4.0 03:05:10 10° N 03:10:26 52° WNW 03:14:21 17° SW
USA 290 3.8 03:10:58 10° NW 03:13:02 19° W 03:13:02 19° W
Cosmos 2263 4.1 03:07:58 10° NNW 03:13:36 74° WSW 03:19:14 10° SSE
Cosmos 1048 Rocket 4.0 03:09:34 16° SSW 03:13:50 86° WNW 03:19:06 10° NNE
UNK 4.0 03:10:15 11° S 03:14:30 46° W 03:18:59 10° NNW
CZ-2C R/B 3.1 03:15:16 10° NNE 03:20:22 57° E 03:25:23 10° S
H-2A R/B 4.4 03:17:48 10° NE 03:21:44 22° E 03:25:42 10° SE
ADEOS II 2.9 03:19:42 10° N 03:24:27 36° WNW 03:28:17 15° WSW
EO 1 Delta rocket 4.2 03:21:28 10° N 03:25:57 51° WNW 03:30:33 12° SSW
Cosmos 883 Rocket 4.5 03:21:37 10° N 03:27:46 87° W 03:33:54 10° S
Cosmos 1707 2.8 03:28:07 10° S 03:31:46 72° E 03:35:28 10° NNE
Cosmos 1302 Rocket 4.1 03:26:53 10° NNW 03:32:07 84° ENE 03:37:19 10° SSE
IRS-1D 4.1 03:27:30 10° NNE 03:32:38 62° ESE 03:37:49 10° S
CZ-4 R/B 3.8 03:28:54 10° NNE 03:33:37 78° WNW 03:38:15 10° SSW
Cosmos 1110 Rocket 4.4 03:30:31 10° NW 03:35:31 43° WSW 03:40:30 10° S
Cosmos 1842 3.1 03:32:22 10° SSW 03:36:05 75° W 03:39:51 10° N
YAOGAN 6 2.6 03:34:49 10° NNE 03:38:07 69° ESE 03:41:25 10° S
ATLAS 5 CENTAUR R/B 3.5 03:34:48 10° WNW 03:38:16 18° WSW 03:42:09 10° SSW
Cosmos 2266 Rocket 3.9 03:33:24 10° SSW 03:39:25 69° WNW 03:45:28 10° N
Cosmos 1603 4.3 03:35:52 10° S 03:41:20 56° ESE 03:46:52 10° NE
S3M 4.1 03:35:19 10° NNW 03:41:21 55° W 03:47:25 10° SSW
SL-16 R/B 2.9 03:36:50 12° WSW 03:41:40 41° NW 03:47:02 10° NNE
SL-08 ROCKET BODY 4.4 03:37:01 10° SSW 03:42:59 74° W 03:49:06 10° N
Cosmos 1452 Rocket 4.1 03:39:07 10° NW 03:43:52 36° WSW 03:48:37 10° SSW
CZ-2C R/B 4.4 03:41:43 11° WSW 03:43:56 14° W 03:46:36 10° NW
ATLAS 2AS CENTAUR R/B 3.3 03:37:01 11° WSW 03:43:57 51° NW 03:50:48 10° NE
ALOS 3.1 03:40:16 10° N 03:44:28 35° WNW 03:48:37 10° SW
Cosmos 1515 Rocket 4.0 03:40:30 10° SSW 03:44:46 46° WNW 03:49:03 10° N
Cosmos 1869 Rocket 3.5 03:42:15 10° NNW 03:46:36 76° W 03:50:54 10° S
Envisat 3.1 03:44:16 10° N 03:49:19 67° WNW 03:54:21 10° SSW
SL-16 R/B 3.7 03:46:11 10° SW 03:50:58 23° W 03:55:49 10° NW
USA 215 3.8 03:54:13 10° ENE 04:00:35 55° NNW 04:06:56 10° W
Cosmos 2228 Rocket 3.7 04:00:02 10° S 04:04:20 59° E 04:08:39 10° NNE
Meteor 1-22 Rocket 4.1 03:58:45 10° NNW 04:04:20 79° W 04:09:41 10° S
METEOR-M 4.4 03:59:56 10° N 04:05:06 51° WNW 04:10:15 10° SW
Cosmos 1674 3.4 04:02:39 10° SW 04:05:44 30° WNW 04:08:50 10° N
Lacrosse 5 2.1 04:00:40 10° WNW 04:05:48 76° NNE 04:10:55 10° ESE
Meteor 1-13 Rocket 4.4 04:03:06 10° SSW 04:08:53 73° WNW 04:14:50 10° N
CZ-3 R/B 4.4 03:52:44 10° SW 04:10:15 24° S 04:17:44 10° SE
USA 229 DEB 4.0 04:03:46 10° NW 04:11:05 65° SW 04:19:02 10° SSE
USA 229 4.0 04:03:52 10° NW 04:11:11 65° SW 04:19:06 10° SSE
